Tracking 29892 objects as of 21-Nov-2024
HD Live streaming from Space Station
objects crossing your sky now

COSMOS 2392 DEB

Track COSMOS 2392 DEB now!
10-day predictions


NORAD ID: 27494
Int'l Code: 2002-037H
Perigee: 1,204.8 km
Apogee: 2,075.6 km
Inclination: 63.4 °
Period: 118.9 minutes
Semi major axis: 8011 km
RCS: 0.7736 m2 (medium)
Launch date: July 25, 2002
Source: Commonwealth of Independent States (former USSR) (CIS)
Launch site: TYURATAM MISSILE AND SPACE COMPLEX (TTMTR)

Note: This is SATELLITE DEBRIS
Your satellite tracking list
Your tracking list is empty




NASA's NSSDC Master Catalog

Two Line Element Set (TLE):
1 27494U 02037H   24325.18073892  .00000009  00000-0  49053-3 0  9995
2 27494  63.4406  36.6506 0543489 331.5297  41.1676 12.10762480984456
Source of the keplerian elements: AFSPC